[[{"header":{"parameterUnit":"m.s-1","parameterCategory":1,"la1":30.2991,"la2":30.254,"lo1":-89.0895,"lo2":-89.0444,"dy":0.0017,"dx":0.0017,"nx":28,"ny":28,"refTime":"2024-04-24T03:00:00:Z","depth":0,"parameterNumber":2,"parameterNumberName":"U-component_of_WINDS"},"data":[0,0,0,0,0,0,0,0,0,0,0,0,0,0,0,0,0,0,0,0,0,0,0,0,0,0,0,0,0,0,0,0,0,0,0,0,0,0,0,0,0,0,0,0,0,0,0,0,0,0,0,0,0,0,0,0,0,0,-1.2574,-1.2573,0,-1.251,-1.2509,-1.2508,-1.2436,-1.2435,-1.2434,-1.2433,-1.2364,-1.2364,-1.2363,0,0,0,0,0,0,0,0,0,0,0,0,0,-1.2633,-1.2633,-1.2574,-1.2573,-1.2573,-1.251,-1.2509,-1.2508,-1.2436,-1.2435,-1.2433,-1.2432,-1.2365,-1.2364,-1.2363,0,0,0,0,0,0,0,0,0,0,0,0,0,-1.2592,-1.2633,-1.2574,-1.2529,-1.2524,-1.251,-1.2509,-1.2508,-1.2436,-1.2435,-1.2433,-1.2432,-1.2365,-1.2364,-1.2363,-1.2387,0,0,-1.2359,-1.2358,0,0,0,0,0,0,0,0,-1.2595,-1.259,-1.2537,-1.2532,-1.2527,-1.2479,-1.2505,-1.2467,-1.2437,-1.247,-1.2433,-1.2431,-1.2404,-1.2399,-1.239,-1.2384,-1.2381,-1.2359,-1.2358,-1.2357,-1.2357,0,0,0,0,0,0,0,-1.2598,-1.2593,-1.2549,-1.2536,-1.253,-1.2512,-1.2504,-1.2497,-1.2446,-1.2467,-1.2461,-1.2455,-1.2401,-1.2392,-1.2388,-1.238,-1.2359,-1.2358,-1.2357,-1.2356,-1.239,-1.2392,0,0,0,0,0,0,-1.2608,-1.2595,-1.2551,-1.2547,-1.2558,-1.2512,-1.2503,-1.2496,-1.2446,-1.2437,-1.2456,-1.2452,-1.2395,-1.239,-1.2386,-1.2411,-1.2357,-1.2356,-1.2355,-1.2388,-1.239,-1.2392,0,0,0,0,0,0,-1.2609,-1.2604,-1.2553,-1.257,-1.2562,-1.2513,-1.2505,-1.2496,-1.2487,-1.2438,-1.2429,-1.2457,-1.2393,-1.2387,-1.2387,-1.2408,-1.2356,-1.2354,-1.2387,-1.2389,-1.2391,-1.2462,0,0,0,0,0,0,-1.2611,-1.2605,-1.2614,-1.257,-1.2561,-1.2557,-1.2506,-1.2496,-1.2485,-1.2478,-1.2436,-1.2428,-1.2392,-1.239,-1.2386,-1.2405,-1.2354,-1.2384,-1.2388,-1.2391,-1.2458,-1.2467,-1.2475,0,0,0,0,0,-1.2614,-1.2636,-1.2615,-1.261,-1.2571,-1.2558,-1.2553,-1.2511,-1.2487,-1.2495,-1.2465,-1.2429,-1.2406,-1.239,-1.2386,-1.2405,-1.2383,-1.2387,-1.239,-1.2454,-1.2465,-1.2474,0,0,0,0,0,0,-1.2682,-1.2629,-1.2605,-1.2615,-1.2592,-1.2546,-1.2555,-1.2524,-1.2507,-1.2501,-1.245,-1.2441,-1.2448,-1.2426,-1.2409,-1.2426,-1.239,-1.2393,-1.244,-1.245,-1.2458,-1.2463,-1.2352,0,0,0,0,0,-1.2699,-1.2693,-1.2647,-1.2659,-1.2649,-1.2604,-1.2597,-1.2568,-1.2541,-1.2531,-1.25,-1.2475,-1.2462,-1.2455,-1.244,-1.2455,-1.2444,-1.2466,-1.2474,-1.2481,-1.2484,-1.249,-1.2499,-1.2404,-1.2404,-1.2404,0,0,-1.2732,-1.2703,-1.2702,-1.2672,-1.2651,-1.2646,-1.2596,-1.2593,-1.2588,-1.253,-1.2528,-1.2505,-1.2474,-1.2481,-1.2483,-1.2463,-1.2508,-1.2486,-1.2492,-1.2491,-1.2495,-1.2504,-1.2512,-1.2407,-1.2406,-1.2406,0,0,-1.2791,-1.2768,-1.2776,-1.2756,-1.2725,-1.2695,-1.2697,-1.2656,-1.2639,-1.2637,-1.2593,-1.2587,-1.2566,-1.2546,-1.2533,-1.2586,-1.2553,-1.2583,-1.2626,-1.2633,-1.264,-1.2647,-1.2666,-1.2673,-1.2586,-1.2586,-1.2586,0,-1.2836,-1.2827,-1.2784,-1.2783,-1.2772,-1.272,-1.2728,-1.271,-1.2676,-1.2669,-1.2648,-1.2621,-1.2597,-1.2599,-1.2612,-1.2604,-1.2604,-1.2587,-1.2643,-1.2649,-1.2654,-1.2672,-1.2679,-1.259,-1.2589,-1.2589,-1.2589,0,-1.2884,-1.2878,-1.2889,-1.2858,-1.2848,-1.2851,-1.2809,-1.2803,-1.2775,-1.2748,-1.2747,-1.2716,-1.2695,-1.2693,-1.2665,-1.2692,-1.2681,-1.2653,-1.2615,-1.2668,-1.2683,-1.269,-1.2595,-1.2594,-1.2593,-1.2592,0,0,-1.2982,-1.2929,-1.2934,-1.2919,-1.2882,-1.2876,-1.2878,-1.2858,-1.2855,-1.2833,-1.2833,-1.2818,-1.2791,-1.2777,-1.2746,-1.2753,-1.2797,-1.2723,-1.2721,-1.2738,-1.2825,-1.2847,-1.2855,-1.2775,-1.2776,-1.2777,-1.2827,0,-1.3034,-1.3034,-1.2996,-1.3007,-1.3001,-1.2953,-1.2954,-1.2931,-1.2906,-1.2898,-1.287,-1.286,-1.2825,-1.2816,-1.2821,-1.2791,-1.2814,-1.2787,-1.2774,-1.2774,-1.2783,-1.2863,-1.2886,-1.2935,-1.2833,-1.2834,-1.2835,0,-1.3093,-1.3077,-1.3087,-1.305,-1.3046,-1.3048,-1.3028,-1.302,-1.2994,-1.2975,-1.296,-1.2926,-1.2925,-1.289,-1.2888,-1.287,-1.2863,-1.2848,-1.2849,-1.2845,-1.2807,-1.2862,-1.2949,-1.2957,-1.2844,-1.2843,-1.2843,0,-1.3164,-1.3144,-1.3148,-1.3137,-1.3094,-1.3097,-1.3079,-1.3051,-1.3042,-1.3024,-1.3018,-1.3,-1.299,-1.2976,-1.2938,-1.2916,-1.294,-1.2902,-1.2925,-1.2926,-1.2931,-1.2931,-1.3019,-1.2927,-1.2927,-1.2927,-1.2927,0,-1.3225,-1.3234,-1.3179,-1.3182,-1.319,-1.3146,-1.3155,-1.3133,-1.3108,-1.3105,-1.3062,-1.306,-1.301,-1.3003,-1.2973,-1.2976,-1.2971,-1.2956,-1.2948,-1.296,-1.2962,-1.2954,-1.2949,-1.2929,-1.2929,-1.2928,-1.2928,0,-1.3306,-1.327,-1.3271,-1.3231,-1.3221,-1.3229,-1.3194,-1.3194,-1.3167,-1.3164,-1.3161,-1.3118,-1.3107,-1.3068,-1.3047,-1.3027,-1.3039,-1.3024,-1.3048,-1.3043,-1.3068,-1.3066,-1.3153,-1.3162,-1.3065,-1.3066,-1.3067,0,-1.3347,-1.3352,-1.3313,-1.3309,-1.3293,-1.3286,-1.3277,-1.3235,-1.3227,-1.3198,-1.3202,-1.3188,-1.3174,-1.3158,-1.3125,-1.3109,-1.3093,-1.3124,-1.309,-1.3102,-1.3093,-1.3093,-1.3094,-1.3132,-1.3133,-1.3134,-1.3135,0,-1.3424,-1.3406,-1.3395,-1.3379,-1.3369,-1.3354,-1.3336,-1.3334,-1.3287,-1.3281,-1.327,-1.3259,-1.3239,-1.3225,-1.3204,-1.3185,-1.3152,-1.3146,-1.315,-1.3162,-1.3177,-1.3169,-1.3068,-1.3144,-1.3143,-1.3143,-1.3142,-1.3142,-1.3485,-1.3488,-1.3462,-1.3451,-1.3434,-1.3418,-1.3417,-1.3391,-1.3381,-1.3361,-1.3337,-1.3329,-1.3302,-1.3271,-1.3255,-1.3247,-1.3229,-1.3236,-1.3237,-1.3239,-1.3245,-1.3178,-1.3243,-1.3243,-1.3243,-1.3243,-1.3242,0,-1.356,-1.3541,-1.3532,-1.3509,-1.3501,-1.3472,-1.3451,-1.3446,-1.344,-1.3418,-1.3406,-1.3394,-1.3381,-1.3348,-1.3331,-1.3332,-1.3317,-1.3329,-1.3328,-1.3325,-1.3262,-1.326,-1.3342,-1.3342,-1.3342,-1.3342,-1.3342,-1.3342,-1.3598,-1.3602,-1.3581,-1.3576,-1.3556,-1.3549,-1.3539,-1.3525,-1.3508,-1.3496,-1.3486,-1.3464,-1.3438,-1.342,-1.3407,-1.3397,-1.3393,-1.3411,-1.3396,-1.3338,-1.3329,-1.332,-1.3318,-1.341,-1.341,-1.3459,-1.346,-1.346]},{"header":{"parameterUnit":"m.s-1","parameterCategory":1,"la1":30.2991,"la2":30.254,"lo1":-89.0895,"lo2":-89.0444,"dy":0.0017,"dx":0.0017,"nx":28,"ny":28,"refTime":"2024-04-24T03:00:00:Z","depth":0,"parameterNumber":3,"parameterNumberName":"V-component_of_WINDS"},"data":[0,0,0,0,0,0,0,0,0,0,0,0,0,0,0,0,0,0,0,0,0,0,0,0,0,0,0,0,0,0,0,0,0,0,0,0,0,0,0,0,0,0,0,0,0,0,0,0,0,0,0,0,0,0,0,0,0,0,2.1874,2.1874,0,2.1887,2.1888,2.1888,2.1932,2.1933,2.1934,2.1935,2.1946,2.1945,2.1944,0,0,0,0,0,0,0,0,0,0,0,0,0,2.1883,2.1883,2.1874,2.1874,2.1874,2.1887,2.1888,2.1888,2.1932,2.1933,2.1934,2.1935,2.1946,2.1945,2.1944,0,0,0,0,0,0,0,0,0,0,0,0,0,2.1886,2.1883,2.1874,2.1898,2.19,2.1887,2.1888,2.1888,2.1932,2.1933,2.1935,2.1936,2.1946,2.1945,2.1944,2.1908,0,0,2.1941,2.1941,0,0,0,0,0,0,0,0,2.1886,2.1886,2.1894,2.1896,2.1899,2.191,2.1895,2.1895,2.1931,2.1919,2.1935,2.1937,2.1932,2.1933,2.1932,2.1909,2.1909,2.1941,2.1941,2.194,2.194,0,0,0,0,0,0,0,2.1886,2.1885,2.1879,2.1894,2.1897,2.1907,2.1909,2.1895,2.1917,2.1921,2.1924,2.1925,2.1934,2.1933,2.1932,2.191,2.1941,2.194,2.194,2.1939,2.1857,2.1856,0,0,0,0,0,0,2.1882,2.1885,2.1879,2.188,2.1896,2.1906,2.1908,2.1905,2.1918,2.1921,2.1924,2.1927,2.1933,2.1933,2.1933,2.1891,2.194,2.1939,2.1939,2.1859,2.1857,2.1855,0,0,0,0,0,0,2.1882,2.1881,2.1878,2.1883,2.1883,2.1904,2.19,2.1904,2.1903,2.192,2.1924,2.1919,2.1935,2.1934,2.1914,2.1892,2.1939,2.1938,2.1861,2.1858,2.1856,2.1808,0,0,0,0,0,0,2.1882,2.1881,2.1868,2.1883,2.1883,2.186,2.1898,2.1903,2.1901,2.1906,2.1916,2.1919,2.1936,2.1915,2.1913,2.1892,2.1937,2.1863,2.186,2.1857,2.1811,2.1804,2.1797,0,0,0,0,0,2.1883,2.1853,2.1867,2.1866,2.1868,2.1859,2.1859,2.1879,2.19,2.1886,2.1897,2.1919,2.1895,2.1913,2.1911,2.1889,2.1864,2.1861,2.1857,2.1814,2.1805,2.1798,0,0,0,0,0,0,2.1835,2.1856,2.1871,2.1846,2.185,2.1866,2.185,2.1869,2.1867,2.1871,2.1896,2.1898,2.1874,2.188,2.1899,2.1854,2.1883,2.1879,2.1851,2.1843,2.1836,2.1835,2.1937,0,0,0,0,0,2.1822,2.1814,2.1832,2.1808,2.1809,2.1829,2.1826,2.1842,2.1847,2.1848,2.1858,2.1861,2.1854,2.1849,2.1844,2.1813,2.1815,2.1796,2.1789,2.1784,2.1779,2.1762,2.1754,2.1844,2.1844,2.1844,0,0,2.1794,2.1804,2.1797,2.1798,2.1804,2.1794,2.183,2.1818,2.1811,2.1846,2.1828,2.1835,2.184,2.1814,2.1803,2.1818,2.1755,2.1779,2.1774,2.1773,2.1758,2.1749,2.1742,2.1841,2.1842,2.1842,0,0,2.1737,2.1745,2.1725,2.173,2.1738,2.1751,2.1747,2.176,2.1766,2.1749,2.1775,2.1766,2.1754,2.1756,2.1756,2.1701,2.1721,2.1699,2.1662,2.1646,2.1639,2.1632,2.1612,2.1604,2.1695,2.1695,2.1695,0,2.1701,2.1688,2.1713,2.1699,2.1698,2.1731,2.1711,2.1714,2.1719,2.1718,2.1735,2.172,2.1726,2.1701,2.1688,2.1687,2.1681,2.1697,2.1638,2.1632,2.1626,2.1607,2.1599,2.1692,2.1692,2.1693,2.1693,0,2.1643,2.1633,2.1617,2.1622,2.1619,2.1602,2.1624,2.1618,2.1634,2.1646,2.1627,2.1635,2.1632,2.1628,2.1643,2.1604,2.1613,2.1634,2.1663,2.1615,2.1597,2.159,2.1688,2.1689,2.169,2.1691,0,0,2.1556,2.1575,2.1569,2.1571,2.1582,2.1575,2.1559,2.1558,2.1552,2.1554,2.1541,2.1531,2.155,2.1549,2.1565,2.1551,2.1506,2.1573,2.1573,2.1559,2.1462,2.1446,2.1437,2.1519,2.1518,2.1517,2.1462,0,2.1501,2.1477,2.1498,2.1469,2.146,2.1492,2.1478,2.1483,2.1493,2.1486,2.1498,2.149,2.1516,2.1516,2.1503,2.1514,2.1486,2.1518,2.1506,2.1505,2.1502,2.1428,2.1411,2.1358,2.1455,2.1454,2.1453,0,2.1435,2.1435,2.1405,2.1418,2.1415,2.1403,2.1402,2.1396,2.1402,2.1411,2.141,2.143,2.1415,2.1445,2.1423,2.1445,2.1441,2.1445,2.1444,2.1442,2.1475,2.1423,2.1342,2.1334,2.1442,2.1443,2.1444,0,2.1373,2.1366,2.1347,2.1348,2.1364,2.1354,2.1359,2.1367,2.1364,2.1364,2.1362,2.136,2.1358,2.1355,2.1373,2.1394,2.1349,2.1381,2.1355,2.1354,2.1343,2.1343,2.1258,2.1342,2.1343,2.1343,2.1343,0,2.1309,2.1289,2.1319,2.1307,2.1286,2.1311,2.1288,2.1297,2.1304,2.1294,2.1321,2.131,2.1336,2.1328,2.1342,2.1321,2.1321,2.1326,2.133,2.1323,2.1322,2.132,2.1324,2.1341,2.1341,2.1341,2.1342,0,2.1236,2.1255,2.1236,2.1253,2.1256,2.124,2.1253,2.1242,2.1255,2.1242,2.124,2.1259,2.1251,2.127,2.1264,2.1274,2.1244,2.1254,2.1242,2.1245,2.1217,2.1219,2.1127,2.1116,2.1208,2.1207,2.1206,0,2.1193,2.1179,2.1194,2.1189,2.1194,2.1186,2.1184,2.1208,2.1204,2.121,2.1198,2.1193,2.119,2.1175,2.1188,2.1184,2.1193,2.1161,2.1192,2.1186,2.1191,2.1191,2.119,2.1154,2.1153,2.1152,2.1151,0,2.1115,2.1126,2.1122,2.1122,2.1118,2.1119,2.1121,2.1116,2.1141,2.1136,2.1129,2.1126,2.1121,2.1114,2.1113,2.1118,2.1138,2.1142,2.1135,2.1127,2.1121,2.1123,2.1223,2.1143,2.1144,2.1145,2.1145,2.1146,2.1055,2.1044,2.1053,2.1047,2.1052,2.1054,2.1044,2.1056,2.1051,2.1049,2.1064,2.1053,2.1059,2.1059,2.1062,2.1053,2.1068,2.1059,2.1056,2.1053,2.1048,2.1123,2.1053,2.1054,2.1054,2.1054,2.1054,0,2.0978,2.0986,2.0981,2.0984,2.0979,2.1001,2.1004,2.0999,2.0989,2.0994,2.0991,2.0982,2.0976,2.0989,2.0984,2.0975,2.0984,2.0973,2.0973,2.0974,2.1036,2.1042,2.0965,2.0965,2.0965,2.0965,2.0965,2.0965,2.0938,2.0919,2.0931,2.0914,2.0922,2.0912,2.0912,2.0914,2.0917,2.0907,2.0902,2.0911,2.0919,2.0915,2.091,2.0914,2.0911,2.0896,2.0903,2.0961,2.0969,2.0978,2.0983,2.0896,2.0895,2.0841,2.0841,2.084]}]]